ARG1140 SAEZ-LIRF

Flight info

Callsign ARG1140
Flight time N/A
Altitude FL330
Route DORV1A DORVO UN857 VUPIP UL206 KODOS 044332N0240004W 090535N0211309W TURUP UA302 ANITI UR975 ARDAR UA854 BRENA UM986 REQIN ERETI KUPIM M986 ORKUM M603 ELSAG MINKA POZZO ROMPO BATOX TINTO VALMA VALM3A
Aircraft A332/H-SADE1E2E3GHIJ3J5M1P2RWXY/LB2D1

Departure

Time 2026-05-08 03:09
Airport Ezeiza International Airport - Ministro Pistarini (SAEZ)

Arrival

Time N/A
Airport Rome–Fiumicino Leonardo da Vinci International Airport (LIRF)
Time Latitude Longitude Altitude Speed Heading
2026-05-08 02:56 -34.81550 -58.53930 81 ft 0 kts 322°
2026-05-08 02:57 -34.81551 -58.53930 81 ft 1 kts 322°
2026-05-08 02:57 -34.81569 -58.53913 85 ft 4 kts 322°
2026-05-08 02:57 -34.81591 -58.53893 85 ft 4 kts 322°
2026-05-08 02:58 -34.81612 -58.53874 85 ft 4 kts 322°
2026-05-08 02:58 -34.81633 -58.53853 85 ft 4 kts 322°
2026-05-08 02:58 -34.81654 -58.53834 85 ft 3 kts 322°
2026-05-08 02:58 -34.81667 -58.53819 84 ft 4 kts 353°
2026-05-08 02:59 -34.81680 -58.53815 85 ft 4 kts 51°
2026-05-08 02:59 -34.81696 -58.53841 84 ft 4 kts 53°
2026-05-08 02:59 -34.81706 -58.53858 85 ft 1 kts 47°
2026-05-08 02:59 -34.81707 -58.53860 85 ft 0 kts 47°
2026-05-08 03:02 -34.81702 -58.53851 85 ft 2 kts 51°
2026-05-08 03:02 -34.81702 -58.53844 85 ft 1 kts 67°
2026-05-08 03:02 -34.81729 -58.53750 84 ft 11 kts 118°
2026-05-08 03:03 -34.81747 -58.53734 81 ft 0 kts 143°
2026-05-08 03:03 -34.81778 -58.53709 86 ft 13 kts 147°
2026-05-08 03:03 -34.81876 -58.53640 86 ft 19 kts 148°
2026-05-08 03:03 -34.81927 -58.53513 83 ft 11 kts 108°
2026-05-08 03:04 -34.81951 -58.53398 82 ft 17 kts 103°
2026-05-08 03:04 -34.81982 -58.53246 86 ft 18 kts 104°
2026-05-08 03:04 -34.82015 -58.53081 85 ft 22 kts 103°
2026-05-08 03:04 -34.82055 -58.52884 88 ft 26 kts 104°
2026-05-08 03:05 -34.82100 -58.52643 83 ft 24 kts 103°
2026-05-08 03:05 -34.82135 -58.52478 84 ft 23 kts 104°
2026-05-08 03:05 -34.82173 -58.52283 83 ft 23 kts 103°
2026-05-08 03:05 -34.82209 -58.52106 81 ft 20 kts 104°
2026-05-08 03:06 -34.82239 -58.51961 84 ft 16 kts 103°
2026-05-08 03:06 -34.82262 -58.51844 84 ft 12 kts 103°
2026-05-08 03:06 -34.82308 -58.51795 85 ft 7 kts 166°
2026-05-08 03:06 -34.82351 -58.51796 82 ft 5 kts 187°
2026-05-08 03:07 -34.82379 -58.51801 86 ft 3 kts 188°
2026-05-08 03:07 -34.82399 -58.51806 88 ft 8 kts 191°
2026-05-08 03:07 -34.82463 -58.51828 89 ft 10 kts 200°
2026-05-08 03:07 -34.82515 -58.51872 89 ft 1 kts 239°
2026-05-08 03:08 -34.82517 -58.51908 90 ft 6 kts 269°
2026-05-08 03:08 -34.82494 -58.52065 88 ft 47 kts 282°
2026-05-08 03:08 -34.82377 -58.52725 90 ft 110 kts 282°
2026-05-08 03:08 -34.82176 -58.53835 88 ft 156 kts 282°
2026-05-08 03:09 -34.81919 -58.55239 263 ft 171 kts 282°
2026-05-08 03:09 -34.81644 -58.56335 1634 ft 111 kts 283°
2026-05-08 03:09 -34.81318 -58.57341 1833 ft 147 kts 285°
2026-05-08 03:09 -34.80960 -58.58563 2176 ft 160 kts 276°
2026-05-08 03:10 -34.80812 -58.59961 2483 ft 175 kts 266°
2026-05-08 03:10 -34.81059 -58.61452 2748 ft 191 kts 246°
2026-05-08 03:10 -34.81795 -58.62874 2952 ft 209 kts 224°
2026-05-08 03:10 -34.82888 -58.64174 3116 ft 232 kts 224°
2026-05-08 03:11 -34.84053 -58.65587 3625 ft 237 kts 224°
2026-05-08 03:11 -34.85209 -58.67017 4153 ft 242 kts 225°
2026-05-08 03:11 -34.86393 -58.68496 4641 ft 246 kts 225°
2026-05-08 03:11 -34.87716 -58.69807 5167 ft 248 kts 210°
2026-05-08 03:12 -34.89323 -58.70474 5704 ft 254 kts 191°
2026-05-08 03:12 -34.91111 -58.70397 6199 ft 263 kts 170°
2026-05-08 03:12 -34.92812 -58.69502 6690 ft 274 kts 149°
2026-05-08 03:12 -34.94235 -58.67928 7175 ft 281 kts 137°
2026-05-08 03:13 -34.95520 -58.66100 7670 ft 287 kts 131°
2026-05-08 03:13 -34.96656 -58.64086 8202 ft 291 kts 124°
2026-05-08 03:13 -34.97309 -58.62649 8554 ft 294 kts 120°
2026-05-08 03:13 -34.98299 -58.59700 9190 ft 301 kts 110°
2026-05-08 03:14 -34.98815 -58.57204 9682 ft 306 kts 102°
2026-05-08 03:14 -34.99079 -58.54591 9941 ft 320 kts 94°
2026-05-08 03:14 -34.98969 -58.51829 10070 ft 336 kts 77°
2026-05-08 03:14 -34.98252 -58.49074 10235 ft 349 kts 70°
2026-05-08 03:15 -34.97447 -58.46241 10499 ft 358 kts 70°
2026-05-08 03:15 -34.96648 -58.43371 11001 ft 360 kts 70°
2026-05-08 03:15 -34.95858 -58.40467 11487 ft 362 kts 70°
2026-05-08 03:15 -34.95076 -58.37560 11991 ft 363 kts 70°
2026-05-08 03:16 -34.94290 -58.34628 12484 ft 365 kts 70°
2026-05-08 03:16 -34.93502 -58.31691 12995 ft 367 kts 69°
2026-05-08 03:16 -34.92709 -58.28742 13494 ft 368 kts 69°
2026-05-08 03:16 -34.91910 -58.25773 13929 ft 370 kts 69°
2026-05-08 03:17 -34.91107 -58.22798 14377 ft 371 kts 69°
2026-05-08 03:17 -34.90299 -58.19810 17077 ft 373 kts 69°
2026-05-08 03:17 -34.89486 -58.16813 17519 ft 374 kts 69°
2026-05-08 03:17 -34.88669 -58.13804 17964 ft 376 kts 69°
2026-05-08 03:18 -34.87849 -58.10783 18398 ft 377 kts 69°
2026-05-08 03:18 -34.87022 -58.07742 18825 ft 379 kts 69°
2026-05-08 03:18 -34.86192 -58.04693 19258 ft 381 kts 68°
2026-05-08 03:18 -34.85356 -58.01626 19692 ft 383 kts 68°
2026-05-08 03:19 -34.84516 -57.98549 20135 ft 385 kts 68°
2026-05-08 03:19 -34.83673 -57.95462 20524 ft 386 kts 68°
2026-05-08 03:19 -34.82823 -57.92358 20885 ft 388 kts 68°
2026-05-08 03:19 -34.81970 -57.89245 21274 ft 390 kts 68°
2026-05-08 03:20 -34.81112 -57.86114 21642 ft 392 kts 68°
2026-05-08 03:20 -34.80248 -57.82970 22024 ft 394 kts 68°
2026-05-08 03:20 -34.79381 -57.79812 22394 ft 396 kts 68°
2026-05-08 03:20 -34.78507 -57.76638 22782 ft 397 kts 67°
2026-05-08 03:21 -34.77629 -57.73452 23160 ft 399 kts 67°
2026-05-08 03:21 -34.76745 -57.70246 23534 ft 402 kts 67°
2026-05-08 03:21 -34.75855 -57.67023 23905 ft 404 kts 67°
2026-05-08 03:21 -34.74960 -57.63785 24285 ft 406 kts 66°
2026-05-08 03:22 -34.74059 -57.60530 24653 ft 408 kts 66°
2026-05-08 03:22 -34.73151 -57.57254 25026 ft 411 kts 66°
2026-05-08 03:22 -34.72166 -57.54000 23114 ft 410 kts 60°
2026-05-08 03:22 -34.70854 -57.50958 23428 ft 406 kts 52°
2026-05-08 03:23 -34.69228 -57.48179 23772 ft 402 kts 45°
2026-05-08 03:23 -34.67435 -57.45629 24098 ft 402 kts 44°
2026-05-08 03:23 -34.65616 -57.43015 24447 ft 403 kts 44°
2026-05-08 03:23 -34.63816 -57.40402 24802 ft 404 kts 44°
2026-05-08 03:24 -34.62015 -57.37784 25144 ft 405 kts 44°
2026-05-08 03:24 -34.60208 -57.35160 25478 ft 406 kts 43°
2026-05-08 03:24 -34.58395 -57.32530 25835 ft 407 kts 43°
2026-05-08 03:24 -34.56583 -57.29906 26182 ft 408 kts 43°
2026-05-08 03:25 -34.54763 -57.27273 26529 ft 408 kts 43°
2026-05-08 03:25 -34.52939 -57.24636 26867 ft 409 kts 42°
2026-05-08 03:25 -34.51113 -57.21999 27199 ft 410 kts 42°
2026-05-08 03:25 -34.49283 -57.19357 27569 ft 409 kts 42°
2026-05-08 03:26 -34.47455 -57.16719 27899 ft 410 kts 41°
2026-05-08 03:26 -34.45623 -57.14079 28235 ft 411 kts 41°
2026-05-08 03:26 -34.43786 -57.11434 28551 ft 411 kts 41°
2026-05-08 03:26 -34.41949 -57.08791 28890 ft 411 kts 41°
2026-05-08 03:27 -34.40112 -57.06148 29204 ft 412 kts 40°
2026-05-08 03:27 -34.38269 -57.03500 29531 ft 412 kts 40°
2026-05-08 03:27 -34.36420 -57.00846 29819 ft 413 kts 40°
2026-05-08 03:27 -34.34567 -56.98190 30026 ft 415 kts 40°
2026-05-08 03:28 -34.32702 -56.95518 30241 ft 417 kts 40°
2026-05-08 03:28 -34.30829 -56.92837 30449 ft 419 kts 40°
2026-05-08 03:28 -34.28946 -56.90144 30682 ft 421 kts 40°
2026-05-08 03:28 -34.27053 -56.87437 30894 ft 423 kts 40°
2026-05-08 03:29 -34.25149 -56.84717 31120 ft 426 kts 40°
2026-05-08 03:29 -34.23231 -56.81983 31301 ft 428 kts 40°
2026-05-08 03:29 -34.21305 -56.79240 31500 ft 430 kts 40°
2026-05-08 03:29 -34.19368 -56.76483 31727 ft 432 kts 40°
2026-05-08 03:30 -34.15468 -56.70938 32083 ft 436 kts 40°
2026-05-08 03:30 -34.11535 -56.65352 32414 ft 439 kts 40°
2026-05-08 03:31 -34.07570 -56.59732 32626 ft 442 kts 40°
2026-05-08 03:32 -34.01623 -56.51310 32633 ft 439 kts 39°
2026-05-08 03:32 -33.97670 -56.45730 32638 ft 438 kts 39°
2026-05-08 03:33 -33.93731 -56.40177 32638 ft 436 kts 39°
2026-05-08 03:33 -33.89802 -56.34646 32638 ft 435 kts 38°
2026-05-08 03:34 -33.85880 -56.29148 32641 ft 433 kts 38°
2026-05-08 03:34 -33.81958 -56.23689 32644 ft 432 kts 38°
2026-05-08 03:35 -33.78047 -56.18245 32644 ft 431 kts 38°
2026-05-08 03:35 -33.74157 -56.12802 32646 ft 430 kts 38°
2026-05-08 03:36 -33.70280 -56.07374 32648 ft 428 kts 37°